This is the latest recevied weather packets stored in our database for station/object YF9UAG-15. If no packets are shown the sender has not sent any weather packets the latest 10 day(s).
| Time | Temp. | Humidity | Pressure | Rain* | Wind** | Luminosity | Snow |
|---|---|---|---|---|---|---|---|
| 1777904228 | 28.33° C | 100% | 1008.9 hPa | - | - | - | - |
| 1777904107 | 28.89° C | 100% | 1008.9 hPa | - | - | - | - |
| 1777903986 | 28.33° C | 100% | 1008.9 hPa | - | - | - | - |
| 1777903865 | 28.33° C | 100% | 1008.9 hPa | - | - | - | - |
| 1777903744 | 28.33° C | 100% | 1009.1 hPa | - | - | - | - |
| 1777903623 | 28.33° C | 100% | 1009.1 hPa | - | - | - | - |
| 1777903502 | 28.33° C | 100% | 1009.2 hPa | - | - | - | - |
| 1777903381 | 28.33° C | 100% | 1009.1 hPa | - | - | - | - |
| 1777903260 | 27.78° C | 100% | 1009 hPa | - | - | - | - |
| 1777903139 | 27.22° C | 100% | 1009 hPa | - | - | - | - |
| 1777903018 | 27.78° C | 100% | 1009.1 hPa | - | - | - | - |
| 1777902897 | 28.33° C | 100% | 1009.1 hPa | - | - | - | - |
| 1777902776 | 28.33° C | 100% | 1009.1 hPa | - | - | - | - |
| 1777902655 | 28.33° C | 100% | 1009.2 hPa | - | - | - | - |
| 1777902535 | 28.33° C | 100% | 1009.2 hPa | - | - | - | - |
| 1777902414 | 28.33° C | 100% | 1009.2 hPa | - | - | - | - |
| 1777902293 | 28.33° C | 100% | 1009.2 hPa | - | - | - | - |
| 1777902172 | 28.33° C | 100% | 1009.2 hPa | - | - | - | - |
| 1777902051 | 28.33° C | 100% | 1009.3 hPa | - | - | - | - |
| 1777901930 | 28.33° C | 100% | 1009.3 hPa | - | - | - | - |
| 1777901809 | 28.89° C | 100% | 1009.3 hPa | - | - | - | - |
| 1777901688 | 28.89° C | 100% | 1009.3 hPa | - | - | - | - |
| 1777901567 | 28.33° C | 100% | 1009.3 hPa | - | - | - | - |
| 1777901446 | 27.78° C | 100% | 1009.3 hPa | - | - | - | - |
| 1777901325 | 28.89° C | 100% | 1009.2 hPa | - | - | - | - |
* Rain since midnight (hover to see other rain measurements)
** Current wind speed in m/s (hover to see current wind gust speed)